Location: Cactus School
(34.5700°N, 118.0931°W)
Time: 04:09:23
(UTC-07:00)

Transit 4A - Pass Details

Date: 17 April 2024
Orbit: 871 x 971 km, 66.8° (Epoch: 20 May)

Event Time Altitude Azimuth Distance (km) Brightness Sun altitude
Rises 23:31:54 0° 331° (NNW) 3,464 11.8 -40.6°
Reaches altitude 10° 23:34:23 10° 330° (NNW) 2,526 10.8 -40.9°
Enters shadow 23:36:28 23° 327° (NNW) 1,765 9.8 -41.0°
Maximum altitude 23:40:11 74° 246° (WSW) 914 - -41.4°
Drops below altitude 10° 23:46:04 10° 162° (SSE) 2,553 - -41.8°
Sets 23:48:35 0° 161° (SSE) 3,504 - -42.0°
